Tracking 34719 objects as of 13-Jul-2026
HD Live streaming from Space Station
objects crossing your sky now

ONEWEB-0385

Track ONEWEB-0385 now!
10-day predictions
ONEWEB-0385 is classified as:


NORAD ID: 49311
Int'l Code: 2021-090AJ
Perigee: 1,187.6 km
Apogee: 1,190.2 km
Inclination: 87.9 °
Period: 109.0 minutes
Semi major axis: 7559 km
RCS: Unknown
Launch date: October 14, 2021
Source: United Kingdom (UK)
Launch site: VOSTOCHNY COSMODROME (VOSTO)
Your satellite tracking list
Your tracking list is empty




NASA's NSSDC Master Catalog

Two Line Element Set (TLE):
1 49311U 21090AJ  26193.74452946  .00000015  00000-0  60845-5 0  9996
2 49311  87.9170 269.3500 0001702 123.9054 236.2242 13.20769522233175
Source of the keplerian elements: AFSPC